Location: Newark
(45.6439°N, 0.5436°E)
Time: 22:50:35
(UTC+00:00)

ISS - Pass Details

Date: 12 November 2019
Orbit: 411 x 421 km, 51.6° (Epoch: 12 December)

Event Time Altitude Azimuth Distance (km) Brightness Sun altitude
Exits shadow 05:32:23 19° 236° (WSW) 1,083 -2.1 -14.1°
Maximum altitude 05:32:53 19° 224° (SW) 1,061 -2.0 -14.0°
Drops below altitude 10° 05:35:23 10° 176° (S) 1,499 -0.8 -13.6°
Sets 05:37:50 0° 158° (SSE) 2,356 0.5 -13.2°
